This is the latest recevied weather packets stored in our database for station/object K0QJ. If no packets are shown the sender has not sent any weather packets the latest 10 day(s).
| Time | Temp. | Humidity | Pressure | Rain* | Wind** | Luminosity | Snow |
|---|---|---|---|---|---|---|---|
| 1777993121 | 8.33° C | 96% | 1011.3 hPa | 0 mm | - | 52 W/m² | - |
| 1777992819 | 8.33° C | 96% | 1010.9 hPa | 0 mm | - | 58 W/m² | - |
| 1777992517 | 8.33° C | 96% | 1011 hPa | 0 mm | - | 55 W/m² | - |
| 1777992216 | 8.33° C | 95% | 1011 hPa | 1.27 mm | - | 56 W/m² | - |
| 1777991912 | 8.33° C | 95% | 1010.7 hPa | 1.27 mm | - | 95 W/m² | - |
| 1777991609 | 8.33° C | 95% | 1010.9 hPa | 0 mm | - | 104 W/m² | - |
| 1777991306 | 8.33° C | 95% | 1011.1 hPa | 0 mm | - | 106 W/m² | - |
| 1777991004 | 8.33° C | 95% | 1011.4 hPa | 0 mm | - | 52 W/m² | - |
| 1777990701 | 8.33° C | 95% | 1011.5 hPa | 1.78 mm | - | 34 W/m² | - |
| 1777990398 | 8.33° C | 95% | 1011.3 hPa | 3.05 mm | - | 45 W/m² | - |
| 1777989791 | 8.33° C | 95% | 1010.5 hPa | 0 mm | - | 25 W/m² | - |
| 1777989488 | 8.33° C | 94% | 1011 hPa | 1.78 mm | - | 16 W/m² | - |
| 1777989184 | 8.33° C | 94% | 1011.3 hPa | 1.78 mm | - | 17 W/m² | - |
| 1777988881 | 8.33° C | 94% | 1011.5 hPa | 1.78 mm | - | 12 W/m² | - |
| 1777988578 | 8.33° C | 94% | 1011 hPa | 1.78 mm | - | 20 W/m² | - |
| 1777988274 | 8.33° C | 94% | 1010.7 hPa | 0 mm | - | 19 W/m² | - |
| 1777987971 | 8.33° C | 94% | 1011.3 hPa | 0 mm | - | 9 W/m² | - |
| 1777987667 | 8.33° C | 93% | 1010.9 hPa | 0 mm | - | 8 W/m² | - |
| 1777987364 | 8.33° C | 93% | 1010.6 hPa | 6.1 mm | - | 6 W/m² | - |
| 1777987061 | 8.89° C | 93% | 1010.2 hPa | 7.11 mm | - | 16 W/m² | - |
| 1777986758 | 8.89° C | 93% | 1010.2 hPa | 0 mm | - | 22 W/m² | - |
| 1777986456 | 8.89° C | 93% | 1011.1 hPa | 0 mm | - | 9 W/m² | - |
| 1777986155 | 8.33° C | 93% | 1010.8 hPa | 0 mm | - | 2 W/m² | - |
| 1777985851 | 8.33° C | 92% | 1009.7 hPa | 0 mm | - | 5 W/m² | - |
| 1777985548 | 8.33° C | 92% | 1008.9 hPa | 0 mm | - | 9 W/m² | - |
* Rain latest hour (hover to see other rain measurements)
** Current wind speed in m/s (hover to see current wind gust speed)